N6GIW Weather Reports


time (UTC)temp
F
wind
direction
speed
knots
gust
knots
rain 1hr
in
rain 24hr
in
rain mn
in
humidity
%
barometer
mb
20260504035503 62 255 0.0 0.0 0.00 0.00 0.00 34 1016.0
20260504035003 62 249 0.0 0.0 0.00 0.00 0.00 36 1016.0
20260504034504 62 195 0.0 0.0 0.00 0.00 0.00 35 1015.9
20260504034003 62 187 0.0 0.0 0.00 0.00 0.00 34 1015.8
20260504033503 63 172 0.0 0.0 0.00 0.00 0.00 31 1016.0
20260504033003 63 183 0.0 0.0 0.00 0.00 0.00 29 1015.7
20260504032503 63 196 0.0 0.0 0.00 0.00 0.00 29 1015.9
20260504032003 63 186 0.0 0.0 0.00 0.00 0.00 28 1016.0
20260504031004 64 178 0.0 0.0 0.00 0.00 0.00 25 1015.8
20260504030503 64 169 0.0 0.0 0.00 0.00 0.00 24 1015.6
20260504025503 65 171 0.0 0.0 0.00 0.00 0.00 24 1015.8
20260504025003 65 165 0.0 0.0 0.00 0.00 0.00 25 1015.8
20260504024504 66 170 0.0 0.0 0.00 0.00 0.00 24 1015.7
20260504024003 66 180 0.0 0.0 0.00 0.00 0.00 23 1015.6
20260504023503 67 184 0.0 0.0 0.00 0.00 0.00 23 1015.7
20260504023003 67 167 0.0 0.0 0.00 0.00 0.00 23 1015.9
20260504022003 68 198 0.0 0.0 0.00 0.00 0.00 21 1015.7
20260504021504 69 190 0.0 0.0 0.00 0.00 0.00 19 1015.5
20260504021003 70 181 0.9 7.8 0.00 0.00 0.00 19 1015.5
20260504020534 70 202 6.1 8.7 0.00 0.00 0.00 18 1015.7
20260504020026 71 193 5.2 8.7 0.00 0.00 0.00 16 1015.6
20260504015502 71 191 2.6 7.8 0.00 0.00 0.00 16 1015.5
20260504015003 72 165 5.2 8.7 0.00 0.00 0.00 15 1015.7
20260504014503 72 213 2.6 7.8 0.00 0.00 0.00 15 1015.7
20260504014004 73 199 2.6 6.1 0.00 0.00 0.00 16 1015.7
20260504013503 73 152 2.6 7.0 0.00 0.00 0.00 17 1015.7
20260504013003 73 216 5.2 10.4 0.00 0.00 0.00 15 1015.5
20260504012503 73 208 5.2 10.4 0.00 0.00 0.00 15 1015.7
20260504012003 74 206 8.7 12.2 0.00 0.00 0.00 14 1015.5
20260504011504 74 196 7.8 14.8 0.00 0.00 0.00 14 1015.4
20260504011003 75 200 10.4 15.6 0.00 0.00 0.00 14 1015.3
20260504010503 75 203 8.7 14.8 0.00 0.00 0.00 14 1015.2
20260504005503 75 190 8.7 19.1 0.00 0.00 0.00 16 1015.2
20260504005003 75 199 11.3 17.4 0.00 0.00 0.00 17 1015.0
20260504004504 75 202 12.2 21.7 0.00 0.00 0.00 18 1014.9
20260504004003 75 212 11.3 17.4 0.00 0.00 0.00 19 1014.9
20260504003503 75 222 11.3 17.4 0.00 0.00 0.00 19 1014.8
20260504002003 75 193 14.8 27.8 0.00 0.00 0.00 21 1014.7
20260504001503 75 212 8.7 21.7 0.00 0.00 0.00 22 1014.7
20260504000003 76 202 15.6 26.9 0.00 0.00 0.00 24 1014.8
20260503235003 76 206 16.5 25.2 0.00 0.00 0.00 25 1015.0
20260503234503 77 219 15.6 25.2 0.00 0.00 0.00 24 1014.9
20260503234003 77 213 15.6 20.9 0.00 0.00 0.00 25 1014.9
20260503233502 77 210 17.4 24.3 0.00 0.00 0.00 25 1014.9
20260503233004 77 209 13.9 22.6 0.00 0.00 0.00 25 1015.1
20260503232504 78 214 13.9 20.9 0.00 0.00 0.00 25 1015.3
20260503232003 78 232 11.3 22.6 0.00 0.00 0.00 25 1015.6
20260503231503 78 228 13.9 21.7 0.00 0.00 0.00 25 1015.6
20260503231003 78 205 12.2 22.6 0.00 0.00 0.00 25 1015.9
20260503230503 78 201 14.8 20.0 0.00 0.00 0.00 25 1015.9
20260503230003 78 213 13.0 19.1 0.00 0.00 0.00 25 1016.0
20260503225504 78 206 11.3 17.4 0.00 0.00 0.00 25 1016.1
20260503224503 79 196 11.3 17.4 0.00 0.00 0.00 25 1016.1
20260503224003 79 214 10.4 17.4 0.00 0.00 0.00 24 1016.1
20260503223504 79 221 8.7 17.4 0.00 0.00 0.00 24 1016.3
20260503223003 80 193 11.3 18.2 0.00 0.00 0.00 24 1016.2
20260503222503 79 198 10.4 15.6 0.00 0.00 0.00 24 1016.3
20260503222003 80 221 9.6 20.0 0.00 0.00 0.00 24 1016.3
20260503221503 80 215 9.6 17.4 0.00 0.00 0.00 24 1016.3
20260503221003 80 187 9.6 15.6 0.00 0.00 0.00 24 1016.3
20260503220503 79 220 12.2 18.2 0.00 0.00 0.00 24 1016.3
20260503220003 79 211 12.2 22.6 0.00 0.00 0.00 24 1016.4
20260503215004 80 197 11.3 17.4 0.00 0.00 0.00 24 1016.4
20260503214503 80 213 10.4 19.1 0.00 0.00 0.00 23 1016.3
20260503214003 80 220 11.3 17.4 0.00 0.00 0.00 23 1016.5
20260503213503 80 220 13.0 19.1 0.00 0.00 0.00 22 1016.5
20260503213003 80 204 11.3 17.4 0.00 0.00 0.00 22 1016.6
20260503212503 81 213 10.4 17.4 0.00 0.00 0.00 22 1016.7
20260503212003 81 216 10.4 22.6 0.00 0.00 0.00 22 1016.9
20260503211003 81 190 10.4 17.4 0.00 0.00 0.00 21 1016.9
20260503210503 80 189 9.6 14.8 0.00 0.00 0.00 21 1017.0
20260503210003 80 189 9.6 18.2 0.00 0.00 0.00 21 1017.1
20260503205503 81 173 9.6 18.2 0.00 0.00 0.00 21 1017.1
20260503205004 80 150 11.3 17.4 0.00 0.00 0.00 21 1017.1
20260503204503 81 189 9.6 13.0 0.00 0.00 0.00 21 1017.3
20260503204003 81 214 8.7 17.4 0.00 0.00 0.00 21 1017.3
20260503203504 80 163 12.2 17.4 0.00 0.00 0.00 21 1017.4
20260503203004 80 155 11.3 18.2 0.00 0.00 0.00 20 1017.5
20260503202503 81 179 10.4 17.4 0.00 0.00 0.00 20 1017.5
20260503201504 80 164 10.4 20.9 0.00 0.00 0.00 20 1017.6
20260503200503 80 163 12.2 18.2 0.00 0.00 0.00 20 1017.7
20260503195003 80 187 13.0 21.7 0.00 0.00 0.00 20 1017.8
20260503194503 80 183 11.3 17.4 0.00 0.00 0.00 19 1017.9
20260503194005 80 197 12.2 19.1 0.00 0.00 0.00 19 1017.9
20260503193004 80 187 8.7 19.1 0.00 0.00 0.00 20 1017.9
20260503192503 79 187 8.7 20.0 0.00 0.00 0.00 20 1018.2
20260503192003 80 186 11.3 19.1 0.00 0.00 0.00 20 1018.2
20260503191503 80 182 12.2 19.1 0.00 0.00 0.00 19 1018.3
20260503191003 80 178 11.3 18.2 0.00 0.00 0.00 19 1018.2
20260503190503 80 178 11.3 18.2 0.00 0.00 0.00 19 1018.3
20260503190003 80 207 12.2 18.2 0.00 0.00 0.00 19 1018.3
20260503185004 80 193 10.4 15.6 0.00 0.00 0.00 18 1018.4
20260503184503 79 188 11.3 15.6 0.00 0.00 0.00 19 1018.4
20260503184003 79 201 10.4 15.6 0.00 0.00 0.00 19 1018.5
20260503183503 79 197 12.2 20.0 0.00 0.00 0.00 18 1018.5
20260503182004 79 181 6.1 20.0 0.00 0.00 0.00 18 1018.6
20260503181504 79 199 10.4 17.4 0.00 0.00 0.00 18 1018.5
20260503181004 79 200 9.6 13.9 0.00 0.00 0.00 18 1018.6
20260503180504 79 189 11.3 17.4 0.00 0.00 0.00 18 1018.7
20260503180003 79 206 11.3 17.4 0.00 0.00 0.00 18 1018.7
20260503175503 79 175 7.8 20.0 0.00 0.00 0.00 18 1018.6
20260503175003 80 195 7.8 14.8 0.00 0.00 0.00 17 1018.7
20260503174003 79 208 10.4 20.0 0.00 0.00 0.00 17 1018.6
20260503173503 79 185 11.3 17.4 0.00 0.00 0.00 18 1018.7
20260503172504 79 190 8.7 20.0 0.00 0.00 0.00 17 1018.8
20260503172003 79 206 7.8 14.8 0.00 0.00 0.00 17 1018.8
20260503171504 79 198 10.4 14.8 0.00 0.00 0.00 17 1018.7
20260503171003 79 182 10.4 15.6 0.00 0.00 0.00 17 1018.6
20260503170503 78 177 8.7 17.4 0.00 0.00 0.00 17 1018.7
20260503151004 74 198 0.0 0.9 0.00 0.00 0.00 23 1019.3
20260503150504 73 198 0.0 0.0 0.00 0.00 0.00 23 1019.2
20260503131004 61 221 0.0 0.0 0.00 0.00 0.00 30 1018.4
20260503130504 61 221 0.0 2.6 0.00 0.00 0.00 30 1018.4
20260503110503 65 243 0.0 0.0 0.00 0.00 0.00 25 1017.7
20260503090504 66 220 0.0 0.9 0.00 0.00 0.00 25 1019.0
20260503081503 68 230 0.0 0.0 0.00 0.00 0.00 24 1019.4
20260503081005 68 223 0.0 0.0 0.00 0.00 0.00 24 1019.6
20260503080504 69 223 0.0 0.0 0.00 0.00 0.00 24 1019.6
20260503072504 72 210 0.0 0.0 0.00 0.00 0.00 21 1019.8
20260503072004 72 210 0.0 0.0 0.00 0.00 0.00 21 1019.8
20260503071505 72 213 0.0 0.0 0.00 0.00 0.00 21 1019.6
20260503071004 71 203 0.0 0.0 0.00 0.00 0.00 22 1019.9
20260503070504 71 205 0.0 0.0 0.00 0.00 0.00 21 1019.9
20260503055003 65 190 0.0 0.0 0.00 0.00 0.00 34 1020.0
20260503054504 65 190 0.0 0.0 0.00 0.00 0.00 34 1020.0
20260503054003 65 190 0.0 0.0 0.00 0.00 0.00 35 1020.1
20260503053504 66 190 0.0 0.0 0.00 0.00 0.00 35 1020.1
20260503053003 66 190 0.0 0.0 0.00 0.00 0.00 35 1020.1
20260503052504 66 190 0.0 0.0 0.00 0.00 0.00 36 1020.1
20260503052003 66 190 0.0 0.0 0.00 0.00 0.00 35 1020.2
20260503051504 66 190 0.0 0.0 0.00 0.00 0.00 37 1020.2
20260503051004 67 190 0.0 0.0 0.00 0.00 0.00 38 1020.1
20260503050504 68 190 0.0 0.0 0.00 0.00 0.00 38 1020.1
20260503045503 69 191 0.0 0.0 0.00 0.00 0.00 37 1020.0
20260503045004 69 193 0.0 0.0 0.00 0.00 0.00 37 1019.9
20260503044503 69 193 0.0 0.0 0.00 0.00 0.00 38 1019.8
20260503044004 69 190 0.0 0.0 0.00 0.00 0.00 40 1019.9
20260503043004 69 176 0.0 0.0 0.00 0.00 0.00 41 1019.9
20260503042503 70 175 0.0 0.0 0.00 0.00 0.00 41 1019.7
20260503042004 70 175 0.0 0.0 0.00 0.00 0.00 41 1019.6
20260503041504 70 178 0.0 0.0 0.00 0.00 0.00 41 1019.7
20260503040504 71 180 0.0 0.0 0.00 0.00 0.00 41 1019.6
20260503040003 71 187 0.0 0.0 0.00 0.00 0.00 41 1019.6